Location: Banios
(43.0451°N, 0.2335°E)
Time: 05:43:57
(UTC+00:00)

N. Korean satellite - Pass Details

Date: 04 December 2021
Orbit: 447 x 491 km, 97.3° (Epoch: 25 January)

Event Time Altitude Azimuth Distance (km) Brightness Sun altitude
Rises 04:49:55 0° 20° (NNE) 2,464 10.3 -25.6°
Reaches altitude 10° 04:52:04 10° 29° (NNE) 1,584 9.4 -25.2°
Maximum altitude 04:55:14 37° 98° (E) 720 7.9 -24.6°
Drops below altitude 10° 04:58:22 10° 167° (SSE) 1,568 9.4 -24.0°
Sets 05:00:29 0° 176° (S) 2,436 10.3 -23.7°
